MDT,Max TemperatureF,Mean TemperatureF,Min TemperatureF,Max Dew PointF,MeanDew PointF,Min DewpointF,Max Humidity, Mean Humidity, Min Humidity, Max Sea Level PressureIn, Mean Sea Level PressureIn, Min Sea Level PressureIn, Max VisibilityMiles, Mean VisibilityMiles, Min VisibilityMiles, Max Wind SpeedMPH, Mean Wind SpeedMPH, Max Gust SpeedMPH,PrecipitationIn, CloudCover, Events, WindDirDegrees
2012-8-1,89,79,68,55,51,46,61,43,24,30.15,29.97,29.87,10,10,10,26,10,32,T,3,,73
2012-8-2,94,82,70,55,48,37,61,38,15,30.17,29.89,29.76,10,10,10,22,9,24,0.00,2,,135
2012-8-3,99,82,65,50,36,14,45,25,5,30.03,29.77,29.65,10,10,10,20,10,23,0.00,1,,143
2012-8-4,97,79,60,36,28,19,26,16,6,29.91,29.84,29.77,10,10,10,15,6,21,0.00,0,,122
2012-8-5,95,79,63,45,37,28,28,21,14,30.03,29.97,29.89,10,10,10,20,9,24,0.00,0,,143
2012-8-6,92,82,72,51,47,45,41,31,21,30.24,30.05,29.99,10,10,10,29,9,33,T,1,Rain,151
2012-8-7,98,83,67,52,41,15,58,33,7,30.10,29.98,29.86,10,10,10,16,8,20,0.00,0,,101
2012-8-8,100,85,70,41,31,22,21,14,7,30.03,29.94,29.85,10,10,10,17,8,20,0.00,1,,112
2012-8-9,100,84,68,51,40,33,31,22,12,30.21,29.94,29.85,10,10,7,41,11,53,T,1,Rain,134
2012-8-10,94,82,70,55,49,44,49,34,19,30.09,29.91,29.79,10,10,10,29,11,36,0.01,1,Thunderstorm,141
2012-8-11,95,80,64,54,47,35,58,37,16,29.95,29.87,29.82,10,10,10,29,9,39,0.00,1,,246
2012-8-12,96,81,65,46,41,34,45,29,13,29.98,29.89,29.81,10,10,10,14,7,26,0.00,0,,132
2012-8-13,82,73,64,55,49,42,63,46,28,30.00,29.95,29.87,10,10,10,33,12,39,T,4,Rain,82
2012-8-14,84,73,61,54,51,45,72,51,29,30.03,29.93,29.84,10,10,10,15,6,17,0.00,0,,158
2012-8-15,93,76,59,47,42,33,60,37,13,29.91,29.83,29.73,10,10,10,15,6,17,0.00,0,,131
2012-8-16,97,81,65,43,37,26,40,24,8,29.91,29.83,29.74,10,8,6,15,7,18,0.00,0,,109
2012-8-17,95,82,68,43,39,35,34,24,13,30.14,29.86,29.77,10,9,7,25,7,32,0.00,0,,33
2012-8-18,95,78,61,45,37,22,48,29,9,30.09,29.82,29.72,10,10,10,17,6,21,0.00,0,,193
2012-8-19,97,80,62,31,28,24,27,18,9,30.11,29.80,29.70,10,10,10,18,8,21,0.00,0,,133
2012-8-20,88,80,72,45,39,33,33,26,18,29.88,29.82,29.74,10,10,10,16,7,20,T,3,,130
2012-8-21,95,79,62,47,41,36,48,31,14,29.94,29.83,29.74,10,10,10,18,8,21,0.00,0,,157
2012-8-22,81,75,69,60,52,46,68,49,30,30.11,29.85,29.76,10,10,10,17,6,20,0.01,5,Rain,350
2012-8-23,76,69,62,61,58,57,87,71,54,30.06,29.88,29.82,10,10,10,18,10,21,0.01,7,Rain,133
2012-8-24,81,71,61,61,58,47,93,66,38,30.08,29.89,29.75,10,10,7,15,5,18,0.13,5,Rain,120
2012-8-25,92,75,58,52,41,19,75,41,7,30.05,29.83,29.73,10,10,10,15,9,17,0.00,0,,136
2012-8-26,95,79,62,44,39,35,39,26,13,30.13,29.91,29.82,10,10,10,21,9,25,0.00,1,,130
2012-8-27,92,80,68,56,49,44,61,41,21,30.21,30.00,29.88,10,10,10,21,11,24,T,3,Rain,127
2012-8-28,93,79,65,49,47,44,56,38,20,30.24,29.98,29.86,10,10,10,18,8,23,0.00,0,,121
2012-8-29,97,82,67,49,44,35,49,31,12,29.95,29.84,29.72,10,10,10,18,8,21,0.00,0,,136
2012-8-30,94,82,70,48,44,37,44,30,15,30.00,29.79,29.71,10,10,9,38,13,45,T,2,,121
2012-8-31,90,77,63,50,47,43,52,37,21,29.91,29.85,29.81,10,10,10,23,7,26,0.00,2,,127